Weather History for Concordia, KS

Change the Weather History Date:

Saturday, March 30, 2013

  Actual Average Record
Temperature  
Mean Temperature 59 °F 48 °F  
Max Temperature 70 °F 60 °F 89 °F (1917)
Min Temperature 48 °F 36 °F 8 °F (1886)
Degree Days  
Heating Degree Days 6 17  
Month to date heating degree days 804 667  
Since 1 July heating degree days 4823 4874  
Cooling Degree Days 0 0  
Month to date cooling degree days 0 0  
Year to date cooling degree days 0 0  
Growing Degree Days 9 (Base 50)    
Moisture  
Dew Point 49 °F    
Average Humidity 65    
Maximum Humidity 93    
Minimum Humidity 37    
Precipitation  
Precipitation 0.28 in 0.08 in 1.32 in (1998)
Month to date precipitation 0.89 1.92  
Year to date precipitation 2.37 3.29  
Snow  
Snow 0.00 in 0.10 in 5.20 in (1985)
Month to date snowfall 4.3 2.7  
Year to date snowfall 17.9 13.1  
Since 1 July snowfall 26.4 19.6  
Snow Depth 0.00 in    
Sea Level Pressure  
Sea Level Pressure 29.94 in    
Wind  
Wind Speed 9 mph (ENE)    
Max Wind Speed 22 mph    
Max Gust Speed 26 mph    
Visibility 8 miles    
Events Rain , Thunderstorm    
T = Trace of Precipitation, MM = Missing Value Source: NWS Daily Summary

Daily Weather History Graph

Daily Weather History Graph

Search for Another Location

Airport:

Trip Planner

Search our weather history database for the weather conditions in past years. The results will help you decide how hot, cold, wet, or windy it might be!

Date:

Astronomy

Mar. 30, 2013 Rise Set
Actual Time 7:17 AM CDT 7:52 PM CDT
Civil Twilight 6:50 AM CDT 8:20 PM CDT
Nautical Twilight 6:18 AM CDT 8:52 PM CDT
Astronomical Twilight 5:45 AM CDT 9:24 PM CDT
Moon No Moon Rise 9:14 AM CDT (3/30)
Length of Visible Light 13h 29m
Length of Day
12h 35m
Waning Gibbous, 86% of the Moon is Illuminated
Mar 30
Waning Gibbous
Apr 2
Last Quarter
Apr 10
New
Apr 18
First Quarter
Apr 25
Full

Hourly Weather History & Observations

Time (CDT) Temp. Dew Point Humidity Pressure Visibility Wind Dir Wind Speed Gust Speed Precip Events Conditions
12:55 AM 55.9 °F 50.0 °F 80% 30.01 in 10.0 mi SSE 12.7 mph - 0.00 in Rain Light Rain
1:42 AM 55.4 °F 50.0 °F 82% 30.03 in 9.0 mi NW 10.4 mph - 0.01 in Rain , Thunderstorm Light Rain
1:53 AM 55.4 °F 51.8 °F 88% 30.03 in 3.0 mi North 10.4 mph - 0.05 in Rain , Thunderstorm Heavy Rain
1:55 AM 55.0 °F 51.1 °F 86% 30.02 in 3.0 mi Variable 5.8 mph 16.1 mph 0.06 in Rain , Thunderstorm Heavy Rain
2:20 AM 53.6 °F 51.8 °F 94% 29.98 in 2.0 mi SE 16.1 mph 19.6 mph 0.10 in Rain , Thunderstorm Heavy Rain
2:26 AM 53.6 °F 51.8 °F 94% 29.97 in 2.0 mi SSE 19.6 mph - 0.14 in Rain Heavy Rain
2:33 AM 55.4 °F 51.8 °F 88% 29.97 in 3.0 mi SSE 18.4 mph - 0.16 in Rain Light Rain
2:42 AM 55.4 °F 51.8 °F 88% 29.96 in 9.0 mi SSE 18.4 mph - 0.16 in Rain , Thunderstorm Light Rain
2:55 AM 54.0 °F 51.1 °F 90% 29.94 in 10.0 mi SE 13.8 mph - 0.16 in Thunderstorm Mostly Cloudy
3:22 AM 53.6 °F 51.8 °F 94% 29.96 in 10.0 mi SE 15.0 mph - N/A   Overcast
3:38 AM 53.6 °F 51.8 °F 94% 29.95 in 9.0 mi SSE 13.8 mph - N/A   Overcast
3:55 AM 53.1 °F 50.0 °F 89% 29.92 in 9.0 mi SE 6.9 mph - N/A   Mostly Cloudy
4:06 AM 53.6 °F 50.0 °F 88% 29.93 in 9.0 mi ESE 8.1 mph - N/A   Scattered Clouds
4:48 AM 53.6 °F 50.0 °F 88% 29.94 in 9.0 mi ESE 8.1 mph - N/A Thunderstorm Thunderstorm
4:55 AM 53.1 °F 50.0 °F 89% 29.92 in 8.0 mi East 5.8 mph - N/A Thunderstorm Thunderstorm
5:03 AM 51.8 °F 50.0 °F 94% 29.94 in 8.0 mi ESE 5.8 mph - N/A   Overcast
5:55 AM 51.1 °F 50.0 °F 96% 29.91 in 5.0 mi SE 8.1 mph - 0.01 in   Mostly Cloudy
6:55 AM 48.0 °F 46.9 °F 96% 29.91 in 2.5 mi South 10.4 mph - N/A   Clear
7:04 AM 53.6 °F 50.0 °F 88% 29.93 in 8.0 mi South 11.5 mph - N/A   Partly Cloudy
7:55 AM 52.0 °F 48.9 °F 89% 29.92 in 7.0 mi SSE 4.6 mph - N/A   Overcast
8:55 AM 53.1 °F 50.0 °F 89% 29.92 in 10.0 mi SW 4.6 mph - N/A   Overcast
9:55 AM 57.9 °F 53.1 °F 84% 29.92 in 10.0 mi SW 4.6 mph - N/A   Scattered Clouds
10:55 AM 62.1 °F 54.0 °F 75% 29.92 in 10.0 mi NNW 8.1 mph - N/A   Clear
11:39 AM 62.6 °F 53.6 °F 72% 29.95 in 10.0 mi North 12.7 mph 17.3 mph N/A   Mostly Cloudy
11:55 AM 63.0 °F 53.1 °F 70% 29.93 in 10.0 mi North 13.8 mph - N/A   Overcast
12:40 PM 64.4 °F 55.4 °F 73% 29.95 in 10.0 mi NE 11.5 mph - N/A   Scattered Clouds
12:55 PM 64.0 °F 53.1 °F 67% 29.93 in 10.0 mi NNE 13.8 mph - N/A   Mostly Cloudy
1:04 PM 64.4 °F 53.6 °F 68% 29.95 in 10.0 mi NNE 13.8 mph - N/A   Scattered Clouds
1:15 PM 62.6 °F 53.6 °F 72% 29.95 in 10.0 mi North 12.7 mph 16.1 mph N/A   Mostly Cloudy
1:55 PM 64.9 °F 53.1 °F 65% 29.93 in 10.0 mi North 10.4 mph - N/A   Mostly Cloudy
2:55 PM 64.9 °F 52.0 °F 63% 29.91 in 10.0 mi NE 10.4 mph - N/A   Scattered Clouds
3:55 PM 68.0 °F 51.1 °F 55% 29.90 in 10.0 mi NNE 8.1 mph - N/A   Scattered Clouds
4:55 PM 69.1 °F 46.9 °F 45% 29.88 in 10.0 mi Variable 6.9 mph - N/A   Clear
5:55 PM 69.1 °F 42.1 °F 38% 29.89 in 10.0 mi North 12.7 mph - N/A   Clear
6:55 PM 66.0 °F 41.0 °F 40% 29.90 in 10.0 mi North 12.7 mph - N/A   Clear
7:55 PM 59.0 °F 37.9 °F 46% 29.92 in 10.0 mi NNE 8.1 mph - N/A   Clear
8:55 PM 55.0 °F 39.0 °F 55% 29.94 in 10.0 mi NNE 5.8 mph - N/A   Partly Cloudy
9:55 PM 53.1 °F 39.0 °F 59% 29.96 in 10.0 mi North 8.1 mph - N/A   Clear
10:55 PM 54.0 °F 41.0 °F 62% 30.01 in 10.0 mi NW 16.1 mph - N/A   Overcast
11:55 PM 51.1 °F 43.0 °F 74% 30.01 in 10.0 mi WNW 6.9 mph - 0.00 in   Overcast